1st Responders/1st Detectors/Storm Spotters Weather Summary for Breckinridge County, KY

Forecast Maps


Reg. NEXRAD Animation


National Fire Danger: Day 1 & 2 Map

Current NWS Watch/Warnings

SPC Convective Day 1 Outlook


Day 2 Outlook

(Click images to enlarge|Page will refresh every 5 minutes)
UK Ag. Weather Center Desktop Severe Weather Service[HERE]
Breckinridge County, KY Hazardous Weather Outlook Webcast
(9 AM to 9 PM Mon-Fri)
[Fast]
[Dial-up]


UKAWC 1st Detectors/1st Responders Precision Weather Forecast For BRECKINRIDGE County, Kentucky
(based on the NWS County Digital Forecast)

ISSUED AT 20:00 UTC ON THURSDAY SEP 20 2018
DAY THURSDAY
CDT 3HR 4P 5P 6P
MAX/MIN -- -- 94°
TEMP 92° 90° 86°
SKY COVER 26% 21% 17%
Clouds
DEW PT 68° 68° 68°
RH 45% 48% 54%
POP 12HR -- -- --
RAIN/SNOW (liq.equ) -- -- --
SNOWFALL -- -- --
WIND SPEED(MPH) 5 5 2
WIND Gust(MPH) 7 7 6
WIND DIR S S S
DEW -- -- --
HeatIndex 98 95 91
Rain Showers -- -- --
Thunder Storm -- -- --
WIND CHILL -- -- --
SPRAY COND
DRY COND
LIVESTOCK HEATSTRESS 81.96 81.08 79.12



DAY FRIDAY SATURDAY SUNDAY MONDAY TUESDAY WEDNESDAY
CDT 6HR 7P 8P 9P 10P 11P MIDN 1A 2A 3A 4A 5A 6A 7A 8A 9A 10A 11A NOON 1P 2P 3P 4P 5P 6P 7P 8P 9P 10P 11P MIDN 1A 2A 3A 4A 7A 10A 1P 4P 7P 1A 7A 1P 7P 1A 7A 1P 7P 1A 7A 1P 7P 1A 7A 1P 7P
MAX/MIN -- -- -- -- -- -- -- -- -- -- -- -- 72° -- -- -- -- -- -- -- -- -- -- 88° -- -- -- -- -- -- -- -- -- -- 61° -- -- 70° -- -- 59° 72° -- -- 61° 77° -- -- 67° 79° -- -- 63° 74° --
TEMP 83° 81° 79° 79° 77° 77° 77° 76° 76° 76° 74° 72° 72° 76° 79° 83° 85° 86° 88° 88° 88° 88° 85° 81° 77° 76° 74° 74° 72° 70° 70° 67° 65° 63° 61° 63° 70° 67° 63° 61° 59° 72° 67° 63° 63° 76° 72° 70° 67° 79° 70° 67° 63° 74° 67°
SKY COVER 13% 13% 14% 15% 16% 16% 17% 21% 25% 29% 32% 36% 39% 42% 48% 50% 53% 57% 59% 59% 60% 61% 65% 72% 76% 76% 78% 79% 81% 84% 86% 88% 92% 93% 97% 96% 97% 97% 98% 84% 78% 63% 60% 66% 70% 68% 65% 62% 74% 75% 68% 74% 81% 79% 65%
Clouds
DEW PT 70° 70° 70° 68° 68° 67° 67° 67° 67° 67° 67° 67° 67° 67° 68° 70° 70° 70° 70° 70° 70° 70° 70° 72° 70° 70° 70° 68° 67° 65° 63° 61° 61° 59° 58° 56° 58° 58° 59° 58° 58° 61° 61° 59° 61° 67° 67° 65° 65° 68° 68° 67° 63° 63° 61°
RH 62% 67% 71% 71% 74% 71% 71% 73% 73% 73% 78% 81% 81% 76% 69% 65% 59% 59% 57% 55% 55% 55% 62% 71% 79% 84% 84% 84% 81% 81% 78% 81% 83% 87% 87% 78% 68% 72% 90% 92% 96% 71% 80% 89% 93% 70% 81% 86% 93% 71% 93% 97% 100% 68% 78%
POP 12HR 1% -- -- -- -- -- -- -- -- -- -- -- 4% -- -- -- -- -- -- -- -- -- -- -- 68% -- -- -- -- -- -- -- -- -- 46% -- -- -- 47% -- 41% -- 35% -- 34% -- 45% -- 31% -- 54% -- 50% -- 36%
RAIN/SNOW (liq.equ) 0.00in -- -- -- -- -- 0.00in -- -- -- -- -- 0.00in -- -- -- -- -- 0.05in -- -- -- -- -- 0.10in -- -- -- -- -- 0.08in -- -- -- 0.05in -- 0.06in -- 0.11in -- -- -- -- -- -- -- -- -- -- -- -- -- -- -- --
SNOWFALL 0in -- -- -- -- -- 0in -- -- -- -- -- 0in -- -- -- -- -- 0in -- -- -- -- -- 0in -- -- -- -- -- 0in -- -- -- 0in -- 0in -- 0in -- -- -- -- -- -- -- -- -- -- -- -- -- -- -- --
WIND SPEED(MPH) 1 1 1 2 5 5 5 5 5 5 5 6 6 6 7 8 8 8 9 8 8 6 6 6 2 2 2 2 5 6 7 7 7 7 7 7 6 7 6 6 6 7 6 5 5 7 7 7 7 7 7 6 6 8 7
WIND DIR S S SE SE S S S S S S S S S S SW SW SW SW SW SW SW SW SW SW W NW NW N N N N N N NE NE NE NE NE NE NE NE E E E E S S S S S S S W W NW
HeatIndex 88 85 83 79 77 77 77 76 76 76 74 72 72 76 82 87 90 92 94 95 95 93 90 86 77 76 74 74 72 70 70 67 65 63 61 63 70 67 63 61 59 72 67 63 63 76 72 70 67 79 70 67 63 74 67
Rain Showers -- -- -- -- -- -- -- -- -- -- -- -- -- -- -- Slight Chance Slight Chance Chance Chance Slight Chance Slight Chance Likely Likely Likely Chance Chance Chance Chance Chance Chance Chance Chance Chance Chance Chance Chance Chance Chance Chance Chance Chance Chance Slight Chance Chance Chance Chance Chance Chance Chance Chance Chance Chance Chance Chance --
Thunder Storm -- -- -- -- -- -- -- -- -- -- -- -- -- -- -- Slight Chance Slight Chance Slight Chance Slight Chance Slight Chance Slight Chance Chance Chance Chance Chance Chance Chance Chance Chance Chance -- -- -- -- -- -- -- -- -- Chance Chance Chance Slight Chance Chance Chance Chance Chance Chance Chance Chance Chance Chance Chance Chance --
WIND CHILL -- -- -- -- -- -- -- -- -- -- -- -- -- -- -- -- -- -- -- -- -- -- -- -- -- -- -- -- -- -- -- -- -- -- -- -- -- -- -- -- -- -- -- -- -- -- -- -- -- -- -- -- -- -- --
SPRAY COND
DRY COND
LIVESTOCK HEATSTRESS 77.94 76.97 75.78 75.78 74.40 74.10 74.10 73.45 73.45 73.45 72.16 70.62 70.62 73.73 75.56 78.34 79.09 79.87 81.09 80.77 80.77 80.77 79.52 77.46 74.90 74.49 72.66 72.66 70.62 68.83 68.64 66.14 64.42 62.70 60.84 62.49 68.03 65.74 62.77 60.90 59.00 69.89 66.10 62.75 62.84 73.16 70.62 69.14 66.68 75.78 69.57 66.86 63.00 71.32 66.01

Click on individual weather variable above in left-hand column (ie., TEMP, RH, QPF 12HR) to view state forecast maps






NWS 48 Hr. Forecast Maps,

Regional Hourly Observations For BRECKINRIDGE County, Kentucky
Issued at 400 PM EDT THU SEP 20 2018
NORTH CENTRAL KENTUCKY
  
CITY           SKY/WX    TMP DP  RH WIND       PRES   REMARKS
LOUISVILLE/SDF FAIR      94  67  41 W10       30.01F HX  97           
LOUISVILLE/LOU FAIR      94  69  44 S8        30.01F HX  99           
FORT KNOX      FAIR      93  66  41 S7        30.03S HX  95           


Current NOWCAST not available:
Nowcasts are not issued routinely during fair weather. Only when
precipitation or other significant weather is occuring in this county will these
forecasts be issued. Currently, there is no short term forecast in effect.


Fire Weather Forecast For BRECKINRIDGE County, KY
Provided by the National Weather Service:

Issued at: Thu Sep 20 16:05:01 EDT 2018

314 AM EDT Thu Sep 20 2018 /214 AM CDT Thu Sep 20 2018/

                      Today        Tonight      Fri          

CLOUD COVER           MClear       MClear       PCldy        
PRECIP TYPE           NONE         NONE         tstms        
CHANCE PRECIP (%)     0            0            50           
TEMP (24H TREND)      95 (+2)      71 (+1)      89           
RH % (24H TREND)      40 (-6)      86 (-11)     54           
20FTWND-VAL/AM(MPH)   Lgt/Var                   S  7         
20FTWND-RDG/PM(MPH)   S  5         Lgt/Var      SW  7        
PRECIP AMOUNT         0.00         0.00         0.07         
MIXING HGT(FT-AGL/MSL)7089                      5603         
TRANSPORT WND (MPH)   S 10                      SW 18        
VENT RATE (KT-FT)     73381                     90320        
DISPERSION            Good                      Good         
DSI                   MOD UNSTBL   MOD UNSTBL   SLGT UNSTBL  
LAL                   1            1            3            
HAINES INDEX          3            3            3            
ADI EARLY             31 FAIR      2 VERY POOR  41 GEN GOOD  
ADI LATE              49 GEN GOOD  4 VERY POOR  54 GEN GOOD  
MAX LVORI EARLY       7            3            5            
MAX LVORI LATE        1            5            3            

REMARKS...ADI IS ATMOSPHERIC DISPERSION INDEX BY LAVDAS.        
LVORI IS LOW VISIBILITY OCCURRENCE RISK INDEX.

.SATURDAY...Mostly cloudy with a 50 percent chance of showers and
thunderstorms. Lows in the mid 60s. Highs in the mid 70s. South
winds around 5 mph. 
.SUNDAY...Mostly cloudy with a 50 percent chance of showers and
thunderstorms. Lows in the lower 60s. Highs in the mid 70s. North
winds around 5 mph. 
.MONDAY...Mostly cloudy with a 50 percent chance of showers and
thunderstorms. Lows in the lower 60s. Highs around 80. South
winds up to 10 mph. 
.TUESDAY...Mostly cloudy with a 50 percent chance of showers and
thunderstorms. Lows in the upper 60s. Highs in the lower 80s.
South winds 5 to 10 mph. 
.WEDNESDAY...Mostly cloudy with a 50 percent chance of showers
and thunderstorms. Lows in the mid 60s. Highs in the mid 70s.
West winds 5 to 10 mph. 

SPC's Fire Weather Web Tool (Excellent!), SPC's Fire Weather Outlooks, NWS Fire Weather WEB, Fire Danger Class Map,
Keetch-Byram Drought Index, ROMAN Web, Haines Index ,
WFAS's 10-hr Dead Fuel Moist., WFAS's 100-hr Dead Fuel Moist., Probablity of Ignition, Visual blackness Map, Palmer Drought Index, HPC's Rainfall Forecast Maps


Hazardous Weather Outlook For BRECKINRIDGE County, Kentucky
352 PM EDT Thu Sep 20 2018 /252 PM CDT Thu Sep 20 2018/

 DAY ONE  Tonight.

No hazardous weather is expected at this time.

 DAYS TWO THROUGH SEVEN  Friday through Wednesday.

Scattered to numberses thunderstorms are expected Friday afternoon
and night across the area as a cold front drops south across the area.
A few strong storms are possible over south-central Indiana and 
north-central and east-central Kentucky. Locally strong wind gusts, 
brief heavy rainfall, and lightning are the main hazards. 

Scattered to numerous thunderstorms are expected Monday into 
Wednesday within a moist unstable air mass across the region and as
another cold front moves through the region Wednesday. Total 
rainfall amounts of 2 to 3 inches with isolated higher amounts are 
possible through Wednesday. A few strong storms also are possible 
Tuesday afternoon or night along the front. Localized flooding is 
possible where storms move over the same locations.

 SPOTTER INFORMATION STATEMENT  

Spotter activation may be required late Friday afternoon and 
evening.

Latest BRECKINRIDGE County, Kentucky Watches, Warnings and Advisories.
Additional Drought Info.: UKAWC Drought Page, Kentucky Drought Watch


7-Day Forecast For BRECKINRIDGE County, KY

TONIGHT
Mostly clear. Lows in the lower 70s. South winds up to 5 mph.

FRIDAY
Partly cloudy with chance of showers and slight chance of thunderstorms. Highs in the upper 80s. Southwest winds 5 to 15 mph. Chance of precipitation 50 percent.

FRIDAY NIGHT
Mostly cloudy with a 50 percent chance of showers and thunderstorms. Lows in the lower 60s. North winds 5 to 10 mph.

SATURDAY
Cloudy with a 50 percent chance of showers. Highs around 70. Northeast winds 5 to 10 mph.

SATURDAY NIGHT
Cloudy with a 50 percent chance of showers. Lows in the upper 50s. Northeast winds 5 to 10 mph.

SUNDAY
Mostly cloudy with a 50 percent chance of showers. Highs in the lower 70s.

SUNDAY NIGHT
Mostly cloudy with a 50 percent chance of showers. Lows in the lower 60s.

MONDAY
Showers likely and chance of thunderstorms. Highs in the upper 70s. Chance of precipitation 60 percent.

MONDAY NIGHT
Mostly cloudy with chance of showers and slight chance of thunderstorms. Lows in the mid 60s. Chance of precipitation 50 percent.

TUESDAY
Mostly cloudy with a 50 percent chance of showers and thunderstorms. Highs in the upper 70s.

TUESDAY NIGHT
Showers likely and chance of thunderstorms. Lows in the lower 60s. Chance of precipitation 70 percent.

WEDNESDAY
Mostly cloudy with chance of showers and slight chance of thunderstorms. Highs in the lower 70s. Chance of precipitation 50 percent.

WEDNESDAY NIGHT
Partly cloudy. Lows in the mid 50s.

THURSDAY
Partly cloudy. Highs in the lower 70s.

Ag Weather Center, Department of Biosystems & Agricultural Engineering, University of Kentucky